Regional Weather Roundup
Issued by NWS Goodland, KS

Home | Current Version | Previous Version | Text Only | Print | Product List | Glossary On
Versions: 1 2 3 4 5 6 7 8 9 10 11 12 13 14 15 16 17 18 19 20 21 22 23 24 25 26 27 28 29 30 31 32 33 34 35 36 37 38 39 40 41 42 43 44 45 46 47 48 49 50
000
ASUS43 KGLD 240108
RWRGLD

GOODLAND FORECAST AREA HOURLY WEATHER ROUNDUP
NATIONAL WEATHER SERVICE GOODLAND KS
700 PM MDT SUN APR 23 2017

...OFFICIAL OBSERVATIONS...

CITY           SKY/WX    TMP DP  RH WIND       PRES   REMARKS
GOODLAND KS    CLOUDY    63  39  41 S21       29.76F
HILL CITY KS   CLOUDY    64  32  30 S16G30    29.86F
IMPERIAL NEB   CLOUDY    64  37  36 S20       29.74F
MCCOOK NEB     CLOUDY    65  35  33 S17G31    29.78F
AKRON CO       CLOUDY    62  37  39 S9        29.72F
BURLINGTON CO  NOT AVBL
LIMON CO       CLOUDY    62  36  37 SE14      29.76F
$$

...UNOFFICIAL OBSERVATIONS...

CITY           SKY/WX    TMP DP  RH WIND       PRES   REMARKS
LENORA KS        N/A     63  32  31 MISG        N/A
NORTON KS      CLEAR     61  25  25 SE15G23   29.82F
SHARON SPRINGS   N/A     62  42  48 SE20G31     N/A
TRENTON NEB      N/A     62  32  32 S14         N/A
KIT CARSON CO    N/A     67  39  35 MISG        N/A
YUMA CO        FAIR      63  37  39 SE12      29.71F
$$




USA.gov is the U.S. government's official web portal to all federal, state and local government web resources and services.